Skip Page Navigation
NASA JPL Caltech
NASA Logo - Jet Propulsion Laboratory + View the NASA Portal
+ Near-Earth Object (NEO) Program
Search JPL
JPL Home Earth Solar System Stars & Galaxies Technology
JPL Solar System Dynamics
BODIES ORBITS EPHEMERIDES TOOLS PHYSICAL DATA DISCOVERY FAQ SITE MAP
JPL Small-Body Database Browser
Search: [ help ]  
11500 Tomaiyowit (1989 UR)
Classification: Apollo [NEO, PHA]          SPK-ID: 2011500
Ephemeris | Orbit Diagram | Orbital Elements | Physical Parameters | Discovery Circumstances | Close-Approach Data ]

[ show orbit diagram ]
Orbital Elements at Epoch 2456400.5 (2013-Apr-18.0) TDB
Reference: JPL 84 (heliocentric ecliptic J2000)
 Element Value Uncertainty (1-sigma)   Units 
e .3558321539380413 6.8777e-08  
a 1.079809536634522 1.2772e-09 AU
q .6955785833710213 7.4073e-08 AU
i 10.30960389876562 7.3503e-06 deg
node 234.4693193499824 1.35e-05 deg
peri 289.4113840228794 1.6022e-05 deg
M 234.2756398856874 7.2133e-06 deg
tp 2456543.631788534599
(2013-Sep-08.13178853)
8.3186e-06 JED
period 409.8445506153709
1.12
7.2718e-07
1.991e-09
d
yr
n .8783818144207832 1.5585e-09 deg/d
Q 1.464040489898022 1.7317e-09 AU
  Orbit Determination Parameters
   # obs. used (total)      436  
   # delay obs. used      0  
   # Doppler obs. used      1  
   data-arc span      7576 days (20.74 yr)  
   first obs. used      1989-10-25  
   last obs. used      2010-07-23  
   planetary ephem.      DE405  
   SB-pert. ephem.      SB405-CPV-2  
   condition code      0  
   fit RMS      .48526  
   data source      ORB  
   producer      Otto Matic  
   solution date      2013-Apr-29 15:37:55  

Additional Information
 Earth MOID = .0339715 AU 
 T_jup = 5.656 
[ show covariance matrix ]

Ephemeris | Orbit Diagram | Orbital Elements | Physical Parameters | Discovery Circumstances | Close-Approach Data ]

Physical Parameter Table
Parameter Symbol Value Units Sigma Reference Notes
absolute magnitude H 18.4 mag n/a PDS3 (MPC 35833)  
rotation period rot_per 73.0 h n/a Asteroid Lightcurve DataBase (Rev. 2013-May-01) Incomplete or inconclusive result.
Published Reference List:
[Pravec, P.; Wolf, M.; Sarounova, L. (1998) http://www.asu.cas.cz/~ppravec/neo.htm]
SMASSII spectral type spec_B S   n/a EAR-A-5-DDR-TAXONOMY-V4.0 based on a high-resolution spectrum by Xu et al. (1995) or Bus and Binzel (2002)

11500 Tomaiyowit           Discovered 1989 Oct. 28 by J. E. Mueller and J. D. Mendenhall at Palomar.
Tomaiyowit is Earth Mother in the Luiseno creation story. She, together with Tukmit, gave birth to the First People, which are all things and features of the earth forming the basis of Luiseno existence.
NOTE: some special characters may not display properly (any characters within {} are an attempt to place the proper accent above a character)
Reference: 20081113/MPCPages.arcLast Updated: 2008-11-17

[ show close-approach data ]
Ephemeris | Orbit Diagram | Orbital Elements | Physical Parameters | Discovery Circumstances | Close-Approach Data ]
ABOUT SSD CREDITS/AWARDS PRIVACY/COPYRIGHT GLOSSARY LINKS
FirstGov 2013-May-19 19:22 UT
(server date/time)  
NASA Home Page
Site Manager:   Donald K. Yeomans
Webmaster  Alan B. Chamberlin